Location: Gazon
(48.1318°N, 1.2708°W)
Time: 22:20:08
(UTC+00:00)

Cosmos 2112 Rocket - Pass Details

Date: 18 September 2020
Orbit: 756 x 787 km, 74.1° (Epoch: 25 October)

Event Time Altitude Azimuth Distance (km) Brightness Sun altitude
Rises 18:48:19 0° 335° (NNW) 3,226 7.8 -7.1°
Reaches altitude 10° 18:50:42 10° 332° (NNW) 2,298 7.1 -7.5°
Maximum altitude 18:55:51 67° 252° (WSW) 829 4.4 -8.3°
Drops below altitude 10° 19:01:01 10° 170° (S) 2,297 6.3 -9.2°
Sets 19:03:24 0° 168° (SSE) 3,223 7.0 -9.6°
